User: anonymous   Login
Location: ???? ?????????
(44.3677°N, 135.2344°E)
Time: 04:16:59
(UTC+00:00)
Language:

NOSS 3-2 (C) - Orbit

View from above orbital plane
View from above orbital plane
View from above satellite
View from above satellite

Ground track
Ground track

The orbit data is extracted from the following two-line orbital elements,

1 28097U 03054C   25317.16840857 0.00000100  00000-0  67068-4 0    00
2 28097  63.3846  21.9418 0575274   6.3281 353.6719 13.41234080    03
Epoch (UTC): 13 November 2025 04:02:30
Eccentricity: 0.0575274
inclination: 63.3846°
perigee height: 674 km
apogee height: 1535 km
right ascension of ascending node: 21.9418°
argument of perigee: 6.3281°
revolutions per day: 13.41234080
mean anomaly at epoch: 353.6719°
orbit number at epoch: 0

The dashed part of the orbit path shows where the satellite is in the earth's shadow,  

DLR